This demonstration page uses our WeatherBlox Daily Observations layout. Learn more.

41.55636, -103.73856

Hourly Observations for May 25, 2019

Temp ( °F °C ) Dew Point ( °F °C ) Humidity (%) Winds ( mph kmh ) Pressure ( in mb ) Visibility ( mi km ) Precip ( " mm )
12:58 am 00:58 Mostly Clear with Light Showers 54 12.1 40 4.2 59 59 NNE 16 26 29.89 1012 10 16.0934 0 0
1:58 am 01:58 undefined 51 10.6 39 3.7 63 63 NNE 8 13 29.87 1012 10 16.0934 0 0
2:58 am 02:58 undefined 48 8.8 37 2.6 65 65 N 3 6 29.89 1012 10 16.0934 0 0
3:58 am 03:58 undefined 46 7.7 37 2.7 71 71 NW 14 22 29.9 1013 10 16.0934 0 0
4:58 am 04:58 undefined 47 8.1 35 1.7 64 64 WNW 14 22 29.89 1012 10 16.0934 0 0
5:58 am 05:58 undefined 43 6.3 34 1.3 71 71 WNW 12 19 29.91 1013 10 16.0934 0 0
6:58 am 06:58 undefined 42 5.7 34 1.3 74 74 WNW 13 20 29.92 1013 10 16.0934 0 0
7:58 am 07:58 undefined 41 5 34 0.9 75 75 WNW 12 19 29.92 1013 10 16.0934 0 0
8:58 am 08:58 undefined 41 5.1 34 0.9 75 75 W 14 22 29.93 1013 10 16.0934 0 0
9:58 am 09:58 undefined 41 5.2 33 0.7 73 73 WNW 14 22 29.94 1014 10 16.0934 0 0
10:58 am 10:58 undefined 40 4.3 32 -0.1 73 73 WNW 10 17 29.96 1015 10 16.0934 0 0
11:58 am 11:58 undefined 40 4.2 33 0.4 77 77 WNW 12 19 29.99 1016 10 16.0934 0 0
12:58 pm 12:58 undefined 47 8.4 35 1.7 63 63 W 7 11 29.98 1015 10 16.0934 0 0
1:58 pm 13:58 undefined 49 9.4 36 2.3 62 62 SE 7 11 30 1016 10 16.0934 0 0
2:58 pm 14:58 undefined 53 11.8 38 3.5 57 57 SE 5 7 29.99 1016 10 16.0934 0 0
3:58 pm 15:58 undefined 57 14 37 2.7 47 47 SW 3 6 29.99 1016 10 16.0934 0 0
4:58 pm 16:58 undefined 61 16.2 41 4.8 47 47 S 5 7 29.97 1015 10 16.0934 0 0
5:58 pm 17:58 undefined 64 17.7 40 4.2 41 41 S 15 24 29.96 1015 10 16.0934 0 0
6:58 pm 18:58 undefined 65 18.5 37 2.6 35 35 S 16 26 29.95 1014 10 16.0934 0 0
7:58 pm 19:58 undefined 67 19.6 37 2.6 32 32 S 20 31 29.93 1014 10 16.0934 0 0
8:58 pm 20:58 undefined 68 20 34 1.1 28 28 S 15 24 29.93 1014 10 16.0934 0 0
9:58 pm 21:58 undefined 69 20.7 34 1.1 27 27 S 17 28 29.91 1013 10 16.0934 0 0
10:58 pm 22:58 undefined 70 20.9 34 0.9 27 27 S 18 30 29.9 1012 10 16.0934 0 0
11:58 pm 23:58 undefined 69 20.7 34 1.3 28 28 SSE 18 30 29.88 1012 10 16.0934 0 0

Powered by AerisWeather